{"data":{"norad_id":55343,"intl_designator":"2023-013N","name":"STARLINK-5661","alt_names":[],"object_type":"PAYLOAD","status":"ACTIVE","operator":null,"country":"US","launch_date":"2023-01-26","launch_site_code":"AFETR","launch_vehicle":null,"mission":null,"orbit_class":"UNKNOWN","rcs_meters":null,"size_class":null,"mass_kg":null,"dimensions":null,"purposes":["comms"],"wikipedia_slug":null,"has_3d_model":false,"image_url":null,"decayed_at":null,"tle_current":{"epoch":"2026-09-20T12:20:37.369824Z","epoch_age_seconds":95447,"freshness":"FRESH","line1":"1 55343U 23013N   26263.51432141 -.00000074  00000+0  68245-5 0  9990","line2":"2 55343  43.0058 282.7730 0001456 278.0606  82.0081 15.27576536201476","mean_motion":15.27576536,"eccentricity":0.0001456,"inclination_deg":43.0058,"raan_deg":282.773,"arg_perigee_deg":278.0606,"mean_anomaly_deg":82.0081,"bstar":6.8245e-6,"rev_number":20147,"period_min":94.266962477093,"perigee_km":482.0604783156,"apogee_km":484.05845872724,"semimajor_km":6861.1964685214,"source":"CELESTRAK","updated_at":"2026-09-21T09:00:33.180856Z"}}}